TAP411 GCLA-LPMA

Flight info

Callsign TAP411
Flight time 0h 45m
Altitude 30000
Route DER36 DCT LA430 DCT LA505 DCT VENZA DCT NELSO DCT BIGPI DCT MADAT DCT MONEC
Aircraft A320/M-SDE3FGHIRWY/LB1

Departure

Time 2026-05-05 20:53
Airport La Palma Airport (GCLA)

Arrival

Time 2026-05-05 21:38
Airport Cristiano Ronaldo International Airport (LPMA)
Time Latitude Longitude Altitude Speed Heading
2026-05-05 20:43 28.62124 -17.75359 103 ft 0 kts 89°
2026-05-05 20:47 28.62124 -17.75372 103 ft 2 kts 90°
2026-05-05 20:48 28.62123 -17.75391 103 ft 2 kts 90°
2026-05-05 20:48 28.62124 -17.75410 103 ft 2 kts 94°
2026-05-05 20:48 28.62126 -17.75428 101 ft 2 kts 118°
2026-05-05 20:48 28.62136 -17.75438 102 ft 1 kts 182°
2026-05-05 20:49 28.62139 -17.75438 102 ft 0 kts 179°
2026-05-05 20:50 28.62110 -17.75444 103 ft 9 kts 203°
2026-05-05 20:50 28.62085 -17.75506 105 ft 12 kts 258°
2026-05-05 20:51 28.62002 -17.75544 106 ft 19 kts 180°
2026-05-05 20:51 28.61859 -17.75541 108 ft 21 kts 179°
2026-05-05 20:51 28.61719 -17.75550 109 ft 15 kts 199°
2026-05-05 20:51 28.61636 -17.75550 109 ft 9 kts 119°
2026-05-05 20:52 28.61672 -17.75526 110 ft 8 kts 345°
2026-05-05 20:52 28.61867 -17.75542 108 ft 63 kts 359°
2026-05-05 20:52 28.62541 -17.75555 96 ft 127 kts 359°
2026-05-05 20:52 28.63558 -17.75577 389 ft 151 kts 359°
2026-05-05 20:53 28.64604 -17.75598 1075 ft 150 kts 360°
2026-05-05 20:53 28.65679 -17.75621 1515 ft 164 kts 359°
2026-05-05 20:53 28.66901 -17.75593 1785 ft 187 kts 12°
2026-05-05 20:53 28.68126 -17.74920 2073 ft 207 kts 36°
2026-05-05 20:54 28.69308 -17.73811 2416 ft 232 kts 41°
2026-05-05 20:54 28.70553 -17.72504 2917 ft 252 kts 43°
2026-05-05 20:54 28.71848 -17.71122 3760 ft 258 kts 42°
2026-05-05 20:54 28.73182 -17.69715 4572 ft 265 kts 41°
2026-05-05 20:55 28.74541 -17.68305 5374 ft 272 kts 41°
2026-05-05 20:55 28.75960 -17.66852 6201 ft 276 kts 40°
2026-05-05 20:55 28.77541 -17.65580 6968 ft 280 kts 25°
2026-05-05 20:55 28.79296 -17.64581 7762 ft 285 kts 25°
2026-05-05 20:56 28.81092 -17.63556 8568 ft 289 kts 25°
2026-05-05 20:56 28.82918 -17.62529 9364 ft 294 kts 20°
2026-05-05 20:56 28.84884 -17.61885 10111 ft 296 kts
2026-05-05 20:56 28.86945 -17.61714 10562 ft 311 kts
2026-05-05 20:57 28.89186 -17.61595 10809 ft 333 kts
2026-05-05 20:57 28.91537 -17.61471 11374 ft 342 kts
2026-05-05 20:57 28.93932 -17.61342 12071 ft 347 kts
2026-05-05 20:57 28.96356 -17.61207 12785 ft 351 kts
2026-05-05 20:58 28.98813 -17.61068 13485 ft 355 kts
2026-05-05 20:58 29.01297 -17.60929 14142 ft 359 kts
2026-05-05 20:58 29.03807 -17.60787 14755 ft 363 kts
2026-05-05 20:58 29.06338 -17.60645 15368 ft 366 kts 360°
2026-05-05 20:59 29.08894 -17.60504 15988 ft 369 kts 360°
2026-05-05 20:59 29.11472 -17.60360 16607 ft 372 kts 360°
2026-05-05 20:59 29.14073 -17.60216 17223 ft 376 kts 360°
2026-05-05 20:59 29.16696 -17.60070 17826 ft 379 kts 360°
2026-05-05 21:00 29.19342 -17.59923 18419 ft 382 kts 360°
2026-05-05 21:00 29.22012 -17.59776 18931 ft 386 kts 359°
2026-05-05 21:00 29.24704 -17.59630 19448 ft 388 kts 359°
2026-05-05 21:00 29.27413 -17.59481 19962 ft 391 kts 359°
2026-05-05 21:01 29.30145 -17.59329 20468 ft 394 kts 360°
2026-05-05 21:01 29.32901 -17.59172 20975 ft 397 kts 360°
2026-05-05 21:01 29.35673 -17.59018 21460 ft 400 kts 359°
2026-05-05 21:01 29.38465 -17.58864 22057 ft 402 kts
2026-05-05 21:02 29.41278 -17.58705 22208 ft 406 kts 360°
2026-05-05 21:02 29.44109 -17.58542 22716 ft 408 kts 360°
2026-05-05 21:02 29.46919 -17.58382 23181 ft 411 kts 360°
2026-05-05 21:02 29.49789 -17.58220 23634 ft 414 kts 359°
2026-05-05 21:03 29.52674 -17.58058 24017 ft 417 kts 359°
2026-05-05 21:03 29.55587 -17.57897 24396 ft 419 kts 359°
2026-05-05 21:03 29.58509 -17.57735 24772 ft 422 kts 359°
2026-05-05 21:03 29.61456 -17.57570 25145 ft 424 kts 359°
2026-05-05 21:04 29.64411 -17.57402 25516 ft 426 kts 359°
2026-05-05 21:04 29.67387 -17.57236 25884 ft 429 kts 359°
2026-05-05 21:04 29.70370 -17.57069 26249 ft 431 kts 359°
2026-05-05 21:04 29.73376 -17.56901 26609 ft 433 kts 359°
2026-05-05 21:05 29.76395 -17.56734 26970 ft 435 kts 359°
2026-05-05 21:05 29.79424 -17.56560 27350 ft 437 kts 360°
2026-05-05 21:05 29.82465 -17.56387 27713 ft 439 kts 360°
2026-05-05 21:05 29.85480 -17.56216 28055 ft 441 kts 360°
2026-05-05 21:06 29.88551 -17.56041 28409 ft 443 kts 360°
2026-05-05 21:06 29.91635 -17.55864 28744 ft 445 kts 360°
2026-05-05 21:06 29.94732 -17.55690 29079 ft 447 kts 360°
2026-05-05 21:06 29.97848 -17.55517 29406 ft 449 kts 360°
2026-05-05 21:07 30.00974 -17.55344 29721 ft 451 kts 360°
2026-05-05 21:07 30.04118 -17.55170 30002 ft 453 kts 360°
2026-05-05 21:07 30.10296 -17.54821 30078 ft 431 kts
2026-05-05 21:08 30.16196 -17.54473 30081 ft 424 kts
2026-05-05 21:08 30.22085 -17.54139 30081 ft 423 kts
2026-05-05 21:09 30.27961 -17.53804 30081 ft 423 kts
2026-05-05 21:09 30.33841 -17.53468 30088 ft 423 kts
2026-05-05 21:10 30.39725 -17.53136 30083 ft 423 kts
2026-05-05 21:10 30.45611 -17.52792 30076 ft 423 kts
2026-05-05 21:11 30.51489 -17.52452 30071 ft 423 kts
2026-05-05 21:11 30.57365 -17.52119 30069 ft 423 kts
2026-05-05 21:12 30.63239 -17.51784 30074 ft 423 kts
2026-05-05 21:12 30.69117 -17.51450 30071 ft 423 kts
2026-05-05 21:13 30.75003 -17.51113 30069 ft 423 kts
2026-05-05 21:13 30.80873 -17.50770 30066 ft 423 kts
2026-05-05 21:14 30.86747 -17.50425 30078 ft 423 kts 359°
2026-05-05 21:14 30.92640 -17.50087 30071 ft 423 kts 360°
2026-05-05 21:15 30.98487 -17.49764 30070 ft 423 kts 360°
2026-05-05 21:15 31.04373 -17.49431 30070 ft 423 kts 360°
2026-05-05 21:16 31.10288 -17.49084 30072 ft 424 kts 360°
2026-05-05 21:16 31.15186 -17.48796 30084 ft 424 kts 360°
2026-05-05 21:17 31.18119 -17.48623 29889 ft 418 kts 360°
2026-05-05 21:17 31.21942 -17.48395 29307 ft 410 kts 360°
2026-05-05 21:17 31.24760 -17.48228 28849 ft 405 kts 360°
2026-05-05 21:17 31.26660 -17.48118 28540 ft 402 kts 359°
2026-05-05 21:18 31.29427 -17.47959 28088 ft 398 kts 359°
2026-05-05 21:18 31.32165 -17.47802 27651 ft 393 kts 359°
2026-05-05 21:18 31.34895 -17.47647 27200 ft 390 kts 359°
2026-05-05 21:18 31.37587 -17.47490 26774 ft 386 kts 359°
2026-05-05 21:19 31.40258 -17.47330 26344 ft 382 kts 359°
2026-05-05 21:19 31.42907 -17.47173 25901 ft 380 kts 359°
2026-05-05 21:19 31.45540 -17.47020 25455 ft 378 kts 359°
2026-05-05 21:19 31.48157 -17.46872 25006 ft 376 kts 359°
2026-05-05 21:20 31.50764 -17.46722 24537 ft 374 kts 359°
2026-05-05 21:20 31.53371 -17.46570 24075 ft 373 kts 359°
2026-05-05 21:20 31.55960 -17.46417 23593 ft 372 kts 359°
2026-05-05 21:20 31.58513 -17.46267 23085 ft 370 kts 359°
2026-05-05 21:21 31.61091 -17.46116 22627 ft 368 kts 359°
2026-05-05 21:21 31.63619 -17.45968 22166 ft 366 kts 359°
2026-05-05 21:21 31.66152 -17.45759 21718 ft 365 kts
2026-05-05 21:21 31.68621 -17.45024 21260 ft 368 kts 17°
2026-05-05 21:22 31.70938 -17.43659 20810 ft 371 kts 30°
2026-05-05 21:22 31.73059 -17.42010 20374 ft 369 kts 30°
2026-05-05 21:22 31.75202 -17.40346 19921 ft 368 kts 30°
2026-05-05 21:22 31.77359 -17.38680 19467 ft 368 kts 31°
2026-05-05 21:23 31.79498 -17.37036 19021 ft 367 kts 30°
2026-05-05 21:23 31.81631 -17.35397 18578 ft 366 kts 30°
2026-05-05 21:23 31.83762 -17.33754 18101 ft 366 kts 30°
2026-05-05 21:23 31.85884 -17.32116 17659 ft 363 kts 31°
2026-05-05 21:24 31.87986 -17.30487 17224 ft 361 kts 31°
2026-05-05 21:24 31.90054 -17.28880 16802 ft 358 kts 29°
2026-05-05 21:24 31.92142 -17.27258 16378 ft 356 kts 32°
2026-05-05 21:24 31.94203 -17.25659 15966 ft 354 kts 30°
2026-05-05 21:25 31.96248 -17.24068 15557 ft 349 kts 31°
2026-05-05 21:25 31.98233 -17.22521 15170 ft 342 kts 29°
2026-05-05 21:25 32.00191 -17.20998 14776 ft 334 kts 30°
2026-05-05 21:25 32.02113 -17.19501 14396 ft 328 kts 32°
2026-05-05 21:26 32.04005 -17.18029 14014 ft 322 kts 31°
2026-05-05 21:26 32.05859 -17.16586 13614 ft 316 kts 29°
2026-05-05 21:26 32.07681 -17.15168 13245 ft 311 kts 30°
2026-05-05 21:26 32.09489 -17.13761 12875 ft 310 kts 31°
2026-05-05 21:27 32.11293 -17.12358 12510 ft 309 kts 31°
2026-05-05 21:27 32.13060 -17.10982 12148 ft 308 kts 30°
2026-05-05 21:27 32.14847 -17.09586 11763 ft 307 kts 31°
2026-05-05 21:27 32.16627 -17.08188 11390 ft 307 kts 32°
2026-05-05 21:28 32.18369 -17.06743 10999 ft 306 kts 34°
2026-05-05 21:28 32.20073 -17.05269 10776 ft 300 kts 35°
2026-05-05 21:28 32.21739 -17.03807 10434 ft 298 kts 34°
2026-05-05 21:28 32.23407 -17.02343 10063 ft 297 kts 36°
2026-05-05 21:29 32.25054 -17.00903 9495 ft 292 kts 35°
2026-05-05 21:29 32.26665 -16.99501 9065 ft 282 kts 35°
2026-05-05 21:29 32.28225 -16.98146 8685 ft 277 kts 35°
2026-05-05 21:29 32.29778 -16.96800 8300 ft 276 kts 35°
2026-05-05 21:30 32.31332 -16.95457 7913 ft 275 kts 35°
2026-05-05 21:30 32.32881 -16.94117 7523 ft 275 kts 35°
2026-05-05 21:30 32.34422 -16.92782 7133 ft 274 kts 36°
2026-05-05 21:30 32.35958 -16.91449 6729 ft 274 kts 36°
2026-05-05 21:31 32.37495 -16.90115 6317 ft 274 kts 36°
2026-05-05 21:31 32.38996 -16.88814 5861 ft 267 kts 36°
2026-05-05 21:31 32.40454 -16.87548 5494 ft 254 kts 36°
2026-05-05 21:31 32.41857 -16.86331 5075 ft 246 kts 37°
2026-05-05 21:32 32.43211 -16.85158 4699 ft 236 kts 37°
2026-05-05 21:32 32.44532 -16.84013 4577 ft 236 kts 37°
2026-05-05 21:32 32.45911 -16.82969 4451 ft 234 kts 27°
2026-05-05 21:32 32.47412 -16.82287 4185 ft 234 kts 22°
2026-05-05 21:33 32.48951 -16.81627 3741 ft 235 kts 21°
2026-05-05 21:33 32.50456 -16.80978 3264 ft 228 kts 22°
2026-05-05 21:33 32.51973 -16.80486 2796 ft 225 kts 13°
2026-05-05 21:33 32.53529 -16.80347 2432 ft 220 kts
2026-05-05 21:34 32.55007 -16.80358 2334 ft 205 kts
2026-05-05 21:34 32.56380 -16.80361 2240 ft 191 kts
2026-05-05 21:34 32.57617 -16.80365 2182 ft 168 kts
2026-05-05 21:34 32.58726 -16.80369 2095 ft 151 kts
2026-05-05 21:35 32.59745 -16.80370 2054 ft 140 kts
2026-05-05 21:35 32.60700 -16.80367 1919 ft 135 kts
2026-05-05 21:35 32.61632 -16.80360 1721 ft 133 kts
2026-05-05 21:35 32.62548 -16.80355 1537 ft 133 kts
2026-05-05 21:36 32.63461 -16.80354 1347 ft 131 kts
2026-05-05 21:36 32.64362 -16.80351 1179 ft 130 kts
2026-05-05 21:36 32.65263 -16.80350 989 ft 133 kts
2026-05-05 21:36 32.66191 -16.80338 829 ft 129 kts
2026-05-05 21:37 32.67059 -16.80121 666 ft 129 kts 24°
2026-05-05 21:37 32.67833 -16.79652 512 ft 130 kts 34°
2026-05-05 21:37 32.68506 -16.78951 350 ft 128 kts 43°
2026-05-05 21:37 32.69082 -16.78268 172 ft 125 kts 43°
2026-05-05 21:38 32.69387 -16.77910 170 ft 108 kts 44°
2026-05-05 21:38 32.69641 -16.77618 178 ft 53 kts 45°
2026-05-05 21:38 32.69713 -16.77533 181 ft 3 kts 45°
2026-05-05 21:38 32.69780 -16.77455 183 ft 21 kts 45°
2026-05-05 21:39 32.69925 -16.77287 197 ft 18 kts 47°
2026-05-05 21:39 32.69930 -16.77175 194 ft 7 kts 161°
2026-05-05 21:39 32.69868 -16.77177 199 ft 13 kts 181°
2026-05-05 21:39 32.69790 -16.77236 180 ft 14 kts 224°
2026-05-05 21:40 32.69711 -16.77330 171 ft 19 kts 227°
2026-05-05 21:40 32.69614 -16.77454 169 ft 20 kts 226°
2026-05-05 21:40 32.69520 -16.77570 169 ft 18 kts 226°
2026-05-05 21:40 32.69436 -16.77674 169 ft 17 kts 226°
2026-05-05 21:41 32.69382 -16.77686 169 ft 7 kts 146°
2026-05-05 21:41 32.69358 -16.77661 169 ft 0 kts 138°
2026-05-05 21:41 32.69356 -16.77659 169 ft 0 kts 138°